Weather History for Guatemala Aeropuertola Aurora, Guatemala

Change the Weather History Date:

Monday, July 8, 2013

  Actual Average Record
Temperature  
Mean Temperature 69 °F -  
Max Temperature 77 °F 74 °F - ()
Min Temperature 61 °F 60 °F - ()
Cooling Degree Days 4    
Growing Degree Days 19 (Base 50)    
Moisture  
Dew Point 60 °F    
Average Humidity 76    
Maximum Humidity 94    
Minimum Humidity 48    
Precipitation  
Precipitation 0.00 in - - ()
Sea Level Pressure  
Sea Level Pressure 30.26 in    
Wind  
Wind Speed 10 mph ()    
Max Wind Speed 16 mph    
Max Gust Speed -    
Visibility 6.2 miles    
Events      
T = Trace of Precipitation, MM = Missing Value Source: Averaged Metar Reports

Daily Weather History Graph

Daily Weather History Graph

Search for Another Location

Airport:

Trip Planner

Search our weather history database for the weather conditions in past years. The results will help you decide how hot, cold, wet, or windy it might be!

Date:

Astronomy

Jul. 08, 2013 Rise Set
Actual Time 5:38 AM CST 6:35 PM CST
Civil Twilight 5:15 AM CST 6:59 PM CST
Nautical Twilight 4:47 AM CST 7:26 PM CST
Astronomical Twilight 4:19 AM CST 7:54 PM CST
Moon 5:54 AM CST (7/8) 6:55 PM CST (7/8)
Length of Visible Light 13h 43m
Length of Day
12h 56m
New Moon, 0% of the Moon is Illuminated
Jul 8
New Moon
Jul 15
First Quarter
Jul 22
Full
Jul 29
Last Quarter
Aug 6
New

Hourly Weather History & Observations

Time (CST) Temp. Dew Point Humidity Pressure Visibility Wind Dir Wind Speed Gust Speed Precip Events Conditions
12:00 AM 62.6 °F 60.8 °F 94% 30.30 in 6.2 mi North 9.2 mph - N/A   Scattered Clouds
1:00 AM 62.6 °F 60.8 °F 94% 30.27 in 6.2 mi NNE 9.2 mph - N/A   Scattered Clouds
2:00 AM 62.6 °F 60.8 °F 94% 30.27 in 6.2 mi North 11.5 mph - N/A   Mostly Cloudy
3:00 AM 62.6 °F 60.8 °F 94% 30.27 in 6.2 mi North 6.9 mph - N/A   Mostly Cloudy
4:00 AM 62.6 °F 60.8 °F 94% 30.24 in 6.2 mi North 9.2 mph - N/A   Scattered Clouds
5:00 AM 62.6 °F 60.8 °F 94% 30.27 in 6.2 mi North 9.2 mph - N/A   Mostly Cloudy
6:00 AM 62 °F 60 °F 90% 29.95 in 25 mi NNE 11.5 mph - -   Partly Cloudy
6:00 AM 62.6 °F 60.8 °F 94% 30.27 in 6.2 mi NNE 11.5 mph - N/A   Scattered Clouds
7:00 AM 62.6 °F 59.0 °F 88% 30.30 in 6.2 mi NNE 13.8 mph - N/A   Partly Cloudy
8:00 AM 66.2 °F 60.8 °F 83% 30.30 in 6.2 mi NNE 9.2 mph - N/A   Partly Cloudy
9:00 AM 69.8 °F 57.2 °F 64% 30.30 in 6.2 mi North 11.5 mph - N/A   Partly Cloudy
10:00 AM 71.6 °F 57.2 °F 60% 30.30 in 6.2 mi North 13.8 mph - N/A   Scattered Clouds
11:00 AM 73.4 °F 59.0 °F 61% 30.30 in 6.2 mi North 13.8 mph - N/A   Scattered Clouds
12:00 PM 74 °F 58 °F 48% 29.99 in 25 mi North 13.8 mph - -   Overcast
12:00 PM 73.4 °F 59.0 °F 61% 30.30 in 6.2 mi North 13.8 mph - N/A   Mostly Cloudy
1:00 PM 75.2 °F 59.0 °F 57% 30.30 in 6.2 mi North 13.8 mph - N/A   Mostly Cloudy
2:00 PM 77.0 °F 59.0 °F 54% 30.27 in 6.2 mi North 13.8 mph - N/A   Scattered Clouds
3:00 PM 77.0 °F 59.0 °F 54% 30.24 in 6.2 mi North 13.8 mph - N/A   Partly Cloudy
4:00 PM 75.2 °F 59.0 °F 57% 30.24 in 6.2 mi North 16.1 mph - N/A   Partly Cloudy
5:00 PM 71.6 °F 60.8 °F 69% 30.24 in 6.2 mi North 13.8 mph - N/A   Partly Cloudy
6:00 PM 69.8 °F 59.0 °F 68% 30.27 in 6.2 mi North 16.1 mph - N/A   Scattered Clouds
7:00 PM 68.0 °F 60.8 °F 78% 30.30 in 6.2 mi NNE 13.8 mph - N/A   Scattered Clouds
8:00 PM 68.0 °F 62.6 °F 83% 30.30 in 6.2 mi North 13.8 mph - N/A   Scattered Clouds
11:00 PM 64.4 °F 60.8 °F 88% 30.36 in 6.2 mi North 13.8 mph - N/A   Scattered Clouds